This demonstration page uses our WeatherBlox Daily Observations layout. Learn more.

Left ArrowRight Arrow

39.51506, -84.39828

Hourly Observations for April 22, 2015

Temp ( °F °C ) Dew Point ( °F °C ) Humidity (%) Winds ( mph kmh ) Pressure ( in mb ) Visibility ( mi km ) Precip ( " mm )
12:15 am 00:15 Cloudy with Drizzle 56 13.1 35 1.5 46 46 W 24 39 29.74 1007 10 16.0934 N/A
12:35 am 00:35 Cloudy with Rain 56 13.6 36 2 46 46 W 21 33 29.74 1007 10 16.0934 N/A
12:55 am 00:55 Cloudy with Light Rain 55 12.5 40 4.5 58 58 WNW 7 11 29.8 1009 10 16.0934 N/A
1:15 am 01:15 Cloudy with Rain 52 11 39 3.9 62 62 WNW 7 11 29.8 1009 10 16.0934 N/A
1:35 am 01:35 Cloudy with Light Snow 49 9.6 40 4.4 70 70 N 5 7 29.8 1009 7 11.26538 N/A
1:55 am 01:55 Cloudy with Light Snow 49 9.6 41 5.1 74 74 NNW 6 9 29.8 1009 5 8.0467 N/A
2:15 am 02:15 Cloudy with Light Snow 49 9.6 41 4.9 73 73 NW 6 9 29.8 1009 7 11.26538 N/A
2:35 am 02:35 Cloudy with Light Snow 49 9.6 41 5 73 73 N 3 6 29.77 1008 5 8.0467 N/A
2:55 am 02:55 Cloudy 49 9.6 42 5.5 76 76 E 5 7 29.77 1008 10 16.0934 N/A
3:15 am 03:15 Cloudy with Light Snow 49 9.6 44 6.8 83 83 N N/A 29.77 1008 5 8.0467 N/A
3:35 am 03:35 Mostly Cloudy with Light Snow 49 9.6 45 7.1 85 85 NNW 3 6 29.77 1008 7 11.26538 N/A
3:55 am 03:55 Mostly Cloudy with Light Snow 48 9 43 6 82 82 N N/A 29.77 1008 7 11.26538 N/A
4:15 am 04:15 Cloudy with Light Snow 47 8.3 41 5.2 81 81 NW 6 9 29.8 1009 7 11.26538 N/A
4:35 am 04:35 Cloudy with Light Snow 47 8.2 39 4.1 76 76 N N/A 29.8 1009 5 8.0467 N/A
4:55 am 04:55 Cloudy 47 8.2 42 5.4 83 83 E 5 7 29.77 1008 10 16.0934 N/A
5:15 am 05:15 Cloudy 47 8.2 42 5.5 83 83 N 3 6 29.77 1008 10 16.0934 N/A
5:35 am 05:35 Cloudy with Light Snow 45 7 40 4.2 83 83 NW 10 17 29.8 1009 4 6.43736 N/A
5:55 am 05:55 Cloudy with Light Snow 43 5.9 38 3.3 84 84 NNW 5 7 29.77 1008 3 4.82802 N/A
6:15 am 06:15 Cloudy with Light Snow 42 5.8 38 3.4 85 85 NW 6 9 29.8 1009 7 11.26538 N/A
6:35 am 06:35 Cloudy with Light Snow 42 5.7 38 3.4 85 85 W 7 11 29.8 1009 4 6.43736 N/A
6:55 am 06:55 Cloudy with Light Snow 42 5.7 38 3.5 86 86 SSW 3 6 29.8 1009 3 4.82802 N/A
7:15 am 07:15 Cloudy with Light Snow 42 5.8 38 3.6 86 86 SSW 6 9 29.8 1009 7 11.26538 N/A
7:35 am 07:35 Cloudy 43 5.9 38 3.6 85 85 WSW 8 13 29.8 1009 7 11.26538 N/A
7:55 am 07:55 Cloudy with Light Snow 42 5.8 38 3.5 85 85 W 9 15 29.8 1009 4 6.43736 N/A
8:15 am 08:15 Cloudy with Light Snow 42 5.6 37 3 84 84 W 8 13 29.83 1010 5 8.0467 N/A
8:35 am 08:35 Cloudy 42 5.8 38 3.2 84 84 W 10 17 29.8 1009 10 16.0934 N/A
8:55 am 08:55 Cloudy 43 5.9 38 3.1 82 82 W 8 13 29.83 1010 10 16.0934 N/A
9:15 am 09:15 Mostly Cloudy 45 7 40 4.2 83 83 W 9 15 29.83 1010 10 16.0934 N/A
9:35 am 09:35 Cloudy 47 8.2 40 4.7 79 79 W 13 20 29.83 1010 10 16.0934 N/A
9:55 am 09:55 Mostly Cloudy 49 9.6 40 4.3 70 70 W 14 22 29.83 1010 10 16.0934 N/A
10:15 am 10:15 Mostly Cloudy 49 9.6 38 3.6 66 66 W 17 28 29.83 1010 10 16.0934 N/A
10:35 am 10:35 Mostly Cloudy 49 9.6 35 1.8 59 59 W 21 33 29.83 1010 10 16.0934 N/A
10:55 am 10:55 Mostly Cloudy 49 9.7 35 1.7 58 58 W 22 35 29.83 1010 10 16.0934 N/A
11:15 am 11:15 Mostly Cloudy 49 9.6 32 0.1 52 52 W 21 33 29.83 1010 10 16.0934 N/A
11:35 am 11:35 Mostly Cloudy 50 9.9 33 0.5 52 52 W 21 33 29.85 1011 10 16.0934 N/A
11:55 am 11:55 Mostly Cloudy 49 9.6 32 -0.2 51 51 WNW 21 33 29.85 1011 10 16.0934 N/A
12:15 pm 12:15 Partly Cloudy 49 9.6 29 -1.4 47 47 WNW 18 30 29.85 1011 10 16.0934 N/A
12:35 pm 12:35 Mostly Cloudy 49 9.6 29 -1.8 45 45 WNW 20 31 29.85 1011 10 16.0934 N/A
12:55 pm 12:55 Mostly Cloudy 49 9.6 28 -2.1 44 44 W 23 37 29.85 1011 10 16.0934 N/A
1:15 pm 13:15 Mostly Cloudy 50 10.1 27 -2.6 41 41 WNW 20 31 29.85 1011 10 16.0934 N/A
1:35 pm 13:35 Mostly Cloudy 49 9.6 28 -2.1 44 44 W 22 35 29.85 1011 10 16.0934 N/A
1:55 pm 13:55 Mostly Cloudy 49 9.7 29 -1.7 45 45 WNW 14 22 29.85 1011 10 16.0934 N/A
2:15 pm 14:15 Mostly Cloudy 49 9.7 27 -2.6 42 42 W 21 33 29.85 1011 10 16.0934 N/A
2:35 pm 14:35 Mostly Cloudy 49 9.6 27 -2.6 43 43 WNW 15 24 29.85 1011 10 16.0934 N/A
2:55 pm 14:55 Mostly Cloudy 49 9.6 26 -3.1 41 41 WNW 16 26 29.85 1011 10 16.0934 N/A
3:15 pm 15:15 Mostly Cloudy 52 11.3 29 -1.8 40 40 WNW 17 28 29.85 1011 10 16.0934 N/A
3:35 pm 15:35 Mostly Cloudy 52 11 28 -2.2 40 40 WNW 18 30 29.85 1011 10 16.0934 N/A
3:55 pm 15:55 Cloudy 51 10.8 29 -1.4 43 43 W 16 26 29.88 1012 10 16.0934 N/A
4:15 pm 16:15 Mostly Cloudy 50 10 26 -3.2 40 40 WNW 20 31 29.88 1012 10 16.0934 N/A
4:35 pm 16:35 Mostly Cloudy 53 11.6 29 -1.7 40 40 WNW 20 31 29.88 1012 10 16.0934 N/A
4:55 pm 16:55 Mostly Cloudy 52 10.9 28 -2.1 41 41 WNW 14 22 29.88 1012 10 16.0934 N/A
5:15 pm 17:15 Mostly Cloudy 50 10.2 26 -3.2 39 39 W 18 30 29.88 1012 10 16.0934 N/A
5:35 pm 17:35 Mostly Cloudy 49 9.6 26 -3.3 40 40 WNW 15 24 29.91 1013 10 16.0934 N/A
5:55 pm 17:55 Mostly Cloudy 49 9.6 25 -3.7 39 39 NW 14 22 29.91 1013 10 16.0934 N/A
6:15 pm 18:15 Cloudy 49 9.6 24 -4.3 38 38 WNW 18 30 29.91 1013 10 16.0934 N/A
6:35 pm 18:35 Mostly Cloudy 49 9.6 26 -3.6 40 40 WNW 16 26 29.94 1014 10 16.0934 N/A
6:55 pm 18:55 Partly Cloudy 49 9.6 25 -3.8 39 39 WNW 15 24 29.91 1013 10 16.0934 N/A
7:15 pm 19:15 Partly Cloudy 49 9.6 25 -4 38 38 W 17 28 29.91 1013 10 16.0934 N/A
7:35 pm 19:35 Mostly Cloudy 49 9.6 25 -4 38 38 WNW 9 15 29.91 1013 10 16.0934 N/A
7:55 pm 19:55 Partly Cloudy 49 9.6 26 -3.6 40 40 WNW 8 13 29.91 1013 10 16.0934 N/A
8:15 pm 20:15 Partly Cloudy 49 9.2 26 -3.1 42 42 W 5 7 29.91 1013 10 16.0934 N/A
8:35 pm 20:35 Clear 47 8.2 26 -3.2 45 45 W 6 9 29.91 1013 10 16.0934 N/A
8:55 pm 20:55 Clear 43 6.1 26 -3.3 51 51 WSW 5 7 29.91 1013 10 16.0934 N/A
9:15 pm 21:15 Clear 42 5.4 28 -2.5 57 57 WSW 3 6 29.91 1013 10 16.0934 N/A
9:35 pm 21:35 Clear 42 5.5 32 undefined 68 68 N N/A 29.91 1013 10 16.0934 N/A
9:55 pm 21:55 Partly Cloudy 40 4.7 32 -0.1 71 71 N N/A 29.91 1013 10 16.0934 N/A
10:15 pm 22:15 Clear 39 4 32 undefined 75 75 N N/A 29.91 1013 10 16.0934 N/A
10:35 pm 22:35 Partly Cloudy 37 2.6 32 -0.2 82 82 N N/A 29.91 1013 10 16.0934 N/A
10:55 pm 22:55 Cloudy 39 3.7 33 0.5 80 80 WSW 3 6 29.91 1013 10 16.0934 N/A
11:15 pm 23:15 Cloudy 40 4.5 33 0.5 76 76 N N/A 29.91 1013 10 16.0934 N/A
11:35 pm 23:35 Mostly Cloudy 40 4.3 32 -0.1 73 73 W 3 6 29.94 1014 10 16.0934 N/A
11:55 pm 23:55 Partly Cloudy 37 2.8 31 -0.3 80 80 W 5 7 29.94 1014 10 16.0934 N/A

Powered by AerisWeather